Location: Auckland
(36.8670°S, 174.7670°E)
Time: 21:04:14
(UTC+12:00)

Courier 1B Rocket - Pass Details

Date: 22 July 2019
Orbit: 920 x 1202 km, 28.3° (Epoch: 23 August)

Event Time Altitude Azimuth Distance (km) Brightness Sun altitude
Rises 06:52:21 0° 281° (W) 4,042 - -7.3°
Exits shadow 06:52:58 - 282° (WNW) 3,839 7.6 -7.2°
Reaches altitude 10° 06:55:24 10° 287° (WNW) 3,047 7.1 -6.8°
Maximum altitude 07:02:22 42° 355° (N) 1,520 6.2 -5.5°
Drops below altitude 10° 07:08:54 10° 63° (ENE) 2,852 9.4 -4.3°
Sets 07:11:40 0° 70° (ENE) 3,760 11.3 -3.7°
